When you browse on this site, cookies collect data to enhance your experience and personalize the content and advertising you see.
Visit our Privacy Policy to learn more. By continuing to use the site, you agree to this use of cookies and data.
  • In Hungary
  • List of Countries
  • For 7 days
  • Water Temperature
  • Weather Map
  • News
  • Weather Widgets
  • user-avatar
    Login

    Hourly Weather Vico Equense

    Today, 7 December, Saturday

    Time Temperature Precipitation Wind Pressure Humidity
    00:00 +14°C° 0.2 mm 2 mps 752 mmHg 85%
    01:00 +14°C° 0.2 mm 2 mps 752 mmHg 87%
    02:00 +13°C° 0.1 mm 2 mps 752 mmHg 88%
    03:00 +12°C° 0.1 mm 3 mps 751 mmHg 88%
    04:00 +12°C° 0.1 mm 3 mps 751 mmHg 89%
    05:00 +12°C° 0 mm 3 mps 751 mmHg 89%
    06:00 +13°C° 0 mm 2 mps 751 mmHg 90%
    07:00 +13°C° 0 mm 2 mps 752 mmHg 90%
    08:00 +14°C° 0 mm 2 mps 752 mmHg 85%
    09:00 +15°C° 0 mm 2 mps 752 mmHg 81%
    10:00 +16°C° 0 mm 1 mps 752 mmHg 76%
    11:00 +16°C° 0 mm 2 mps 751 mmHg 72%
    12:00 +17°C° 0 mm 2 mps 751 mmHg 68%
    13:00 +17°C° 0 mm 2 mps 751 mmHg 65%
    14:00 +17°C° 0 mm 2 mps 751 mmHg 66%
    15:00 +17°C° 0 mm 2 mps 751 mmHg 68%
    16:00 +16°C° 0 mm 2 mps 751 mmHg 69%
    17:00 +16°C° 0 mm 2 mps 751 mmHg 72%
    18:00 +15°C° 0 mm 1 mps 751 mmHg 76%
    19:00 +15°C° 0 mm 1 mps 751 mmHg 80%
    20:00 +14°C° 0 mm 1 mps 751 mmHg 81%
    21:00 +14°C° 0 mm 1 mps 752 mmHg 83%
    22:00 +14°C° 0 mm 1 mps 752 mmHg 84%
    23:00 +14°C° 0 mm 1 mps 752 mmHg 85%

    Tomorrow, 8 December, Sunday

    Time Temperature Precipitation Wind Pressure Humidity
    00:00 +14°C° 0 mm 1 mps 752 mmHg 86%
    01:00 +13°C° 0 mm 1 mps 752 mmHg 87%
    02:00 +13°C° 0 mm 1 mps 751 mmHg 88%
    03:00 +13°C° 0 mm 1 mps 751 mmHg 89%
    04:00 +13°C° 0 mm 1 mps 751 mmHg 90%
    05:00 +13°C° 0 mm 1 mps 751 mmHg 90%
    06:00 +13°C° 0 mm 1 mps 751 mmHg 90%
    07:00 +13°C° 0 mm 1 mps 751 mmHg 90%
    08:00 +13°C° 0.1 mm 1 mps 752 mmHg 85%
    09:00 +14°C° 0.1 mm 1 mps 752 mmHg 80%
    10:00 +15°C° 0.1 mm 1 mps 752 mmHg 75%
    11:00 +16°C° 0 mm 1 mps 752 mmHg 70%
    12:00 +16°C° 0 mm 1 mps 751 mmHg 66%
    13:00 +18°C° 0 mm 1 mps 751 mmHg 61%
    14:00 +17°C° 0 mm 2 mps 751 mmHg 64%
    15:00 +16°C° 0 mm 2 mps 750 mmHg 67%
    16:00 +16°C° 0 mm 2 mps 750 mmHg 70%
    17:00 +15°C° 0 mm 2 mps 750 mmHg 72%
    18:00 +15°C° 0 mm 2 mps 750 mmHg 75%
    19:00 +14°C° 0 mm 2 mps 751 mmHg 77%
    20:00 +14°C° 0.1 mm 2 mps 751 mmHg 78%
    21:00 +14°C° 0.1 mm 2 mps 750 mmHg 79%
    22:00 +13°C° 0.1 mm 3 mps 750 mmHg 80%
    23:00 +13°C° 0.1 mm 3 mps 750 mmHg 81%

    Day after tomorrow, 9 December, Monday

    Time Temperature Precipitation Wind Pressure Humidity
    00:00 +13°C° 0.1 mm 3 mps 750 mmHg 81%
    01:00 +12°C° 0.1 mm 3 mps 749 mmHg 82%
    02:00 +12°C° 0.1 mm 3 mps 749 mmHg 82%
    03:00 +12°C° 0.1 mm 4 mps 748 mmHg 81%
    04:00 +13°C° 0.1 mm 4 mps 748 mmHg 81%
    05:00 +13°C° 0.3 mm 4 mps 748 mmHg 82%
    06:00 +13°C° 0.3 mm 5 mps 748 mmHg 83%
    07:00 +13°C° 0.3 mm 5 mps 747 mmHg 85%
    08:00 +13°C° 0.3 mm 5 mps 747 mmHg 81%
    09:00 +14°C° 0.3 mm 5 mps 747 mmHg 77%
    10:00 +14°C° 0.3 mm 5 mps 747 mmHg 73%
    11:00 +14°C° 0.3 mm 5 mps 746 mmHg 72%
    12:00 +14°C° 0.3 mm 6 mps 745 mmHg 72%
    13:00 +15°C° 0.3 mm 6 mps 745 mmHg 72%
    14:00 +14°C° 0.7 mm 6 mps 744 mmHg 74%
    15:00 +14°C° 0.7 mm 7 mps 744 mmHg 76%
    16:00 +12°C° 0.7 mm 7 mps 743 mmHg 79%
    17:00 +12°C° 0.1 mm 7 mps 743 mmHg 74%
    18:00 +12°C° 0.1 mm 7 mps 743 mmHg 69%
    19:00 +12°C° 0.1 mm 8 mps 743 mmHg 65%
    20:00 +12°C° 0.1 mm 8 mps 743 mmHg 65%
    21:00 +12°C° 0.1 mm 8 mps 743 mmHg 65%
    22:00 +12°C° 0.1 mm 8 mps 743 mmHg 65%
    23:00 +11°C° 0.3 mm 8 mps 743 mmHg 68%

    10 December, Tuesday

    Time Temperature Precipitation Wind Pressure Humidity
    00:00 +11°C° 0.3 mm 7 mps 742 mmHg 70%
    01:00 +11°C° 0.3 mm 7 mps 742 mmHg 72%
    02:00 +10°C° 0.4 mm 5 mps 741 mmHg 73%
    03:00 +11°C° 0.4 mm 4 mps 741 mmHg 74%
    04:00 +11°C° 0.4 mm 3 mps 740 mmHg 75%
    05:00 +10°C° 0.3 mm 4 mps 740 mmHg 76%
    06:00 +10°C° 0.3 mm 4 mps 740 mmHg 76%
    07:00 +10°C° 0.3 mm 4 mps 740 mmHg 77%
    08:00 +10°C° 0.2 mm 5 mps 740 mmHg 72%
    09:00 +10°C° 0.2 mm 6 mps 740 mmHg 67%
    10:00 +11°C° 0.2 mm 6 mps 741 mmHg 62%
    11:00 +11°C° 0.1 mm 6 mps 740 mmHg 59%
    12:00 +11°C° 0.1 mm 7 mps 740 mmHg 57%
    13:00 +12°C° 0.1 mm 7 mps 740 mmHg 54%
    14:00 +11°C° 0 mm 7 mps 740 mmHg 56%
    15:00 +11°C° 0 mm 7 mps 741 mmHg 57%
    16:00 +11°C° 0 mm 7 mps 741 mmHg 58%
    17:00 +10°C° 0.1 mm 8 mps 741 mmHg 63%
    18:00 +10°C° 0.1 mm 9 mps 742 mmHg 68%
    19:00 +8°C° 0.1 mm 11 mps 742 mmHg 73%
    20:00 +8°C° 0 mm 11 mps 743 mmHg 69%
    21:00 +8°C° 0 mm 11 mps 744 mmHg 64%
    22:00 +7°C° 0 mm 11 mps 744 mmHg 59%
    23:00 +7°C° 0 mm 11 mps 744 mmHg 60%

    11 December, Wednesday

    Time Temperature Precipitation Wind Pressure Humidity
    00:00 +7°C° 0 mm 11 mps 745 mmHg 61%
    01:00 +6°C° 0 mm 10 mps 745 mmHg 62%
    02:00 +6°C° 0 mm 10 mps 745 mmHg 62%
    03:00 +6°C° 0 mm 9 mps 745 mmHg 61%
    04:00 +6°C° 0 mm 9 mps 745 mmHg 61%
    05:00 +5°C° 0 mm 9 mps 745 mmHg 61%
    06:00 +5°C° 0 mm 8 mps 746 mmHg 61%
    07:00 +5°C° 0 mm 8 mps 746 mmHg 61%
    08:00 +6°C° 0 mm 7 mps 746 mmHg 59%
    09:00 +7°C° 0 mm 6 mps 747 mmHg 58%
    10:00 +8°C° 0 mm 6 mps 747 mmHg 56%
    11:00 +9°C° 0 mm 6 mps 747 mmHg 53%
    12:00 +9°C° 0 mm 5 mps 747 mmHg 50%
    13:00 +10°C° 0 mm 5 mps 746 mmHg 47%
    14:00 +9°C° 0 mm 5 mps 746 mmHg 47%
    15:00 +10°C° 0 mm 4 mps 747 mmHg 47%
    16:00 +10°C° 0 mm 4 mps 747 mmHg 47%
    17:00 +8°C° 0 mm 4 mps 747 mmHg 49%
    18:00 +8°C° 0 mm 4 mps 747 mmHg 52%
    19:00 +7°C° 0 mm 4 mps 747 mmHg 54%
    20:00 +8°C° 0 mm 3 mps 747 mmHg 54%
    21:00 +8°C° 0 mm 3 mps 747 mmHg 54%
    22:00 +7°C° 0 mm 2 mps 747 mmHg 54%
    23:00 +7°C° 0 mm 2 mps 747 mmHg 56%

    12 December, Thursday

    Time Temperature Precipitation Wind Pressure Humidity
    00:00 +7°C° 0 mm 2 mps 747 mmHg 57%
    01:00 +7°C° 0 mm 2 mps 747 mmHg 59%
    02:00 +7°C° 0 mm 2 mps 747 mmHg 60%
    03:00 +7°C° 0 mm 2 mps 746 mmHg 61%
    04:00 +6°C° 0 mm 2 mps 746 mmHg 62%
    05:00 +7°C° 0 mm 2 mps 746 mmHg 62%
    06:00 +7°C° 0 mm 2 mps 746 mmHg 63%
    07:00 +7°C° 0 mm 3 mps 745 mmHg 64%
    08:00 +7°C° 0.1 mm 2 mps 745 mmHg 65%
    09:00 +8°C° 0.1 mm 2 mps 745 mmHg 66%
    10:00 +8°C° 0.1 mm 2 mps 745 mmHg 66%
    11:00 +8°C° 0.6 mm 3 mps 744 mmHg 71%
    12:00 +8°C° 0.6 mm 4 mps 744 mmHg 75%
    13:00 +8°C° 0.6 mm 5 mps 743 mmHg 79%
    14:00 +7°C° 1.8 mm 4 mps 743 mmHg 82%
    15:00 +8°C° 1.8 mm 3 mps 743 mmHg 84%
    16:00 +8°C° 1.8 mm 2 mps 742 mmHg 86%
    17:00 +8°C° 0.5 mm 3 mps 743 mmHg 85%
    18:00 +8°C° 0.5 mm 3 mps 743 mmHg 84%
    19:00 +8°C° 0.5 mm 3 mps 743 mmHg 83%
    20:00 +8°C° 0.1 mm 3 mps 743 mmHg 82%
    21:00 +8°C° 0.1 mm 3 mps 743 mmHg 81%
    22:00 +8°C° 0.1 mm 3 mps 743 mmHg 80%
    23:00 +8°C° 0.1 mm 3 mps 743 mmHg 79%
    Show more